Location: Newark
(44.4156°N, 12.1972°E)
Time: 15:26:39
(UTC+00:00)

STARLINK-1094 - Pass Details

Date: 01 February 2020
Orbit: 348 x 351 km, 53.0° (Epoch: 18 February)

Event Time Altitude Azimuth Distance (km) Brightness Sun altitude
Rises 17:29:21 0° 301° (WNW) 2,165 7.5 -12.7°
Reaches altitude 10° 17:31:23 10° 297° (WNW) 1,319 6.4 -13.0°
Maximum altitude 17:34:16 55° 218° (SW) 427 3.3 -13.5°
Enters shadow 17:36:46 13° 141° (SE) 1,164 5.0 -14.0°
